Orbital Elements at Epoch 2459200.5 (2020-Dec-17.0) TDB
Reference: JPL 20 (heliocentric ecliptic J2000)
Element | Value | Uncertainty (1-sigma) | Units |
e | .1193514919169579 | 3.9494e-08 | |
a | 2.718604596586518 | 1.6848e-08 | au |
q | 2.394135082051617 | 1.0957e-07 | au |
i | 14.07377892588007 | 4.9803e-06 | deg |
node | 124.46752023239 | 1.6957e-05 | deg |
peri | 335.6464597815782 | 2.7977e-05 | deg |
M | 265.4098450875249 | 2.4191e-05 | deg |
tp | 2459630.690616481132 (2022-Feb-20.19061648) | 0.00011237 | TDB |
period | 1637.259417499722 4.48 | 1.522e-05 4.167e-08 | d yr |
n | .219879633094284 | 2.044e-09 | deg/d |
Q | 3.043074111121418 | 1.8859e-08 | au |
|
| | Orbit Determination Parameters
Additional Information
|